sat.trackr.live / text

‹ back to catalog

HJS-6B

NORAD 63429 · 2025-067B

PAYLOAD ACTIVE UNKNOWN

§ Identity

Operator
Country
PRC
Launch date
2025-04-01
Launch site
JSC
Launch vehicle
Mass (kg)
RCS (m²)

External: N2YO · Heavens-Above · Gunter

§ Orbital elements

Epoch: 2026-05-25T05:32:02.937120Z

Period
94.42 min
Inclination
54.9896°
Eccentricity
0.0004413
Mean motion
15.25082800 rev/d
Perigee alt
487.5 km
Apogee alt
493.6 km
Semi-major
6,868.7 km
B*
2.0352e-4
RAAN
128.5169°
Arg perigee
282.9041°
Mean anomaly
77.1488°
Rev number
6,444

§ Raw data

HJS-6B1 63429U 25067B   26145.23058955  .00004821  00000+0  20352-3 0  99982 63429  54.9896 128.5169 0004413 282.9041  77.1488 15.25082800 64441

JSON: /api/v1/satellites/63429 · /tle

For live sub-satellite position, see the globe view (requires WebGL).

§ Visibility from observer

Set your observer location to see the next 7 days of passes ≥ 10°. The values pass through the URL so the page stays shareable.

No JS? Fill the form by hand. The geolocation button needs JavaScript.

§ Radio — SatNOGS DB

ModeDescriptionDownlinkUplink
FM S-band telemetry 2.244 GHz

1 transmitter · refreshed weekly from db.satnogs.org